Regional Weather Roundup
Issued by NWS

Home | Current Version | Previous Version | Graphics & Text | Print | Product List | Glossary On
Versions: 1 2 3 4 5 6 7 8 9 10 11 12 13 14 15 16 17 18 19 20 21 22 23 24 25 26 27 28 29 30 31 32 33 34 35 36 37 38 39 40 41 42 43 44 45 46 47 48 49
000
ASUS45 KBOU 060207
RWRCO

WEATHER ROUNDUP FOR COLORADO
NATIONAL WEATHER SERVICE DENVER/BOULDER CO
700 PM MST MON DEC 05 2016

NOTE: "FAIR" INDICATES FEW OR NO CLOUDS BELOW 12000 FEET WITH NO
SIGNIFICANT WEATHER AND/OR OBSTRUCTIONS TO VISIBILITY.

COZ001>005-013-030-031-060300-
...NORTHWEST COLORADO...

CITY           SKY/WX    TMP DP  RH WIND       PRES   REMARKS
CRAIG          CLOUDY    12  -3  51 SW8       29.96R WCI   0
HAYDEN         MOCLDY    12  -6  44 W3        29.93S
MEEKER         MOCLDY    16   6  65 CALM      29.94S
MOUNT WERNER   NOT AVBL
STEAMBOAT SPGS CLOUDY    13  -6  42 CALM      29.92R
WALDEN           N/A      5 -13  43 SW8       29.84R WCI  -8
$$

COZ006>008-011-060300-
...WEST CENTRAL VALLEYS...

CITY           SKY/WX    TMP DP  RH WIND       PRES   REMARKS
GRAND JUNCTION FAIR      30   9  41 W10       29.92R WCI  21
MONTROSE       FAIR      32  11  41 NW17      29.91R WCI  21
EAGLE          CLOUDY    27   9  46 VRB5      29.89R WCI  21
RIFLE          CLOUDY    30   4  33 NW16G25   29.91R WCI  19
DELTA          FAIR      38  11  32 W10G16    29.89R
NUCLA          FAIR      32  19  59 NW9       29.92R WCI  24
$$

COZ017>023-064>068-060300-
...SOUTHWEST COLORADO...

CITY           SKY/WX    TMP DP  RH WIND       PRES   REMARKS
DURANGO        FAIR      35  16  45 W9        29.85R WCI  28
CORTEZ         FAIR      29  21  72 NE8       29.88R WCI  21
PAGOSA SPRINGS FAIR      33  10  39 SW8       29.86R WCI  26
TELLURIDE      NOT AVBL
WOLF CREEK PAS FAIR      14   7  73 SW10G21   29.91S WCI   1
$$

COZ009-010-012-014-032>034-037-058>063-060300-
...CENTRAL COLORADO...

CITY           SKY/WX    TMP DP  RH WIND       PRES   REMARKS
ASPEN          LGT SNOW  20  13  74 N13G29    29.83R WCI   7
BUENA VISTA    FAIR      29  -1  27 SW8       29.76R WCI  21
COPPER MTN     CLOUDY    12   5  73 MISG      29.69S
BERTHOUD PASS  LGT SNOW  -8 -18  59 MISG      29.62R
COTTONWOOD PAS CLOUDY    28  -4  24 SW18G29   29.76R WCI  16
GUNNISON       NOT AVBL
KREMMLING      CLOUDY    19  -4  35 N6        29.89R WCI  11
LEADVILLE      CLOUDY    17   9  70 NW8       29.71R WCI   7
MONARCH PASS   FAIR      12   1  62 W40G51    29.84S WCI -12
SALIDA         FAIR      35   5  28 W17G24    29.87R WCI  24
SUNLIGHT       LGT SNOW   5   3  92 SW12G24   29.81R VSB 3/4 WCI -11
WILKERSON PASS MOCLDY    16   3  57 S10G23    29.73F WCI   3
$$

COZ069>075-060300-
...SAN LUIS VALLEY/SANGRE DE CRISTO MOUNTAINS...

CITY           SKY/WX    TMP DP  RH WIND       PRES   REMARKS
ALAMOSA        FAIR      27  17  66 W9        29.81R WCI  18
LA VETA PASS   FAIR      27  12  54 N12G18    29.85R WCI  16
SAGUACHE       FAIR      27  10  50 NW9       29.82R WCI  17
$$

COZ035-036-038>040-060300-
...NORTHERN COLORADO FRONT RANGE...

CITY           SKY/WX    TMP DP  RH WIND       PRES   REMARKS
DENVER INTL AP FAIR      24   2  38 N25G36    29.77R WCI   8
DMNS CITY PARK   N/A     26   4  39 SE12      29.79R WCI  16
AURORA         PTCLDY    22   2  43 E14       29.80R WCI   9
FRONT RANGE AP MOCLDY    27   0  31 N17G23    29.82R WCI  14
ERIE MUNI ARPT FAIR      30   0  27 W20G26    29.82R WCI  17
BOULDER MUN AP FAIR      30   1  29 W33G45    29.76R WCI  14
CENTENNIAL     FAIR      22   3  44 E14       29.79R WCI   9
BROOMFIELD     NOT AVBL
FORT COLLINS   FAIR      27  -6  24 NW31G47   29.82R WCI  10
LONGMONT       FAIR      32   6  33 W18G36    29.81R WCI  20
$$

COZ041-046-047-076>085-087-088-060300-
...PIKES PEAK/PALMER DIVIDE AND SOUTHERN FOOTHILLS...

CITY           SKY/WX    TMP DP  RH WIND       PRES   REMARKS
COLO. SPRINGS  FAIR      24   3  40 NE23      29.76R WCI   9
A. F. ACADEMY  FAIR      29   4  35 N13       29.74R WCI  19
SCHRIEVER AFB  NOT AVBL
ELLICOTT       FAIR     N/A N/A N/A NE23G33   29.77
FALCON         FAIR      19   1  45 NE6       29.80R WCI  11
FORT CARSON    FAIR      31   7  36 NE15      29.75R WCI  21
LIMON          FAIR      23  -4  30 N16G29    29.84R WCI  10
MONUMENT HILL  FAIR      18   1  49 NE17      29.79R WCI   2
TRINIDAD       FAIR      46   9  22 W13G21    29.74R
$$

COZ042>045-048>051-090-091-060300-
...NORTHEAST COLORADO...

CITY           SKY/WX    TMP DP  RH WIND       PRES   REMARKS
GREELEY ARPT   FAIR      27  -2  28 NW31G39   29.81R WCI  10
AKRON          CLOUDY    23  10  57 N23G29    29.86R WCI   7
BURLINGTON     FAIR      29  10  45 N23G31    29.86R WCI  15
WRAY           CLOUDY    30  16  55 MISG      29.91R
STERLING       CLOUDY    27  12  54 N16G23    29.89R WCI  14
HOLYOKE        FAIR      30  16  55 N18G26    29.89R WCI  18
FORT MORGAN    CLOUDY    26   3  36 N13       29.89R WCI  15
$$

COZ086-089-092>099-060300-
...SOUTHEAST COLORADO...

CITY           SKY/WX    TMP DP  RH WIND       PRES   REMARKS
PUEBLO         FAIR      35   5  28 NE23G31   29.76R WCI  23
LA JUNTA       FAIR      38   3  23 N28G38    29.80R
LAMAR          FAIR      38   3  23 NE22G31   29.80R
SPRINGFIELD      N/A     42  21  43 N25G35    29.73R
$$



USA.gov is the U.S. government's official web portal to all federal, state and local government web resources and services.